Retour au catalogue

HJS-4C

ActifScienceLEO
NORAD 58693·PAYLOAD·🇨🇳 China

Lancé Dec 30, 2023 depuis Jiuquan Satellite Launch Center

Loading…

Prochains Passages (prochaines 24 heures)

TLE

FraisSource: Space-Track

Époque: Sep 14, 2026, 14:55 UTC

1 58693U 23212C   26257.62182049 -.00000114  00000-0  25490-4 0  9996
2 58693  50.0006  16.5566 0000607  29.0575 331.0336 13.41465051133268

Suivez HJS-4C en temps réel avec AllMySat

Download on the App Store